Location: Moy Burn
(57.3833°N, 4.0667°W)
Time: 10:18:38
(UTC+00:00)

ERBS - Pass Details

Date: 08 August 2020
Orbit: 412 x 421 km, 57.0° (Epoch: 18 September)

Event Time Altitude Azimuth Distance (km) Brightness Sun altitude
Rises 23:43:29 0° 278° (W) 2,356 6.3 -16.4°
Reaches altitude 10° 23:45:34 10° 277° (W) 1,492 5.2 -16.5°
Maximum altitude 23:48:53 75° 192° (SSW) 434 2.1 -16.5°
Enters shadow 23:50:46 24° 110° (ESE) 917 3.7 -16.6°
